Weather History for KHWV - April, 2013

Change the Weather History Date:

Monday, April 1, 2013

  Actual Average (KISP) Record (KISP)
Temperature  
Mean Temperature 46 °F 44 °F  
Max Temperature 55 °F 52 °F 67 °F (1999)
Min Temperature 37 °F 36 °F 26 °F (1992)
Degree Days  
Heating Degree Days 18 21  
Month to date heating degree days 21  
Since 1 July heating degree days 4713  
Cooling Degree Days 0 0  
Month to date cooling degree days 0  
Year to date cooling degree days 0  
Moisture  
Dew Point 41 °F    
Average Humidity 81    
Maximum Humidity 100    
Minimum Humidity 39    
Precipitation  
Precipitation 0.13 in 0.15 in 1.78 in (1998)
Month to date precipitation 0.15  
Year to date precipitation 11.49  
Snow  
Snow 0.00 in 0.10 in 2.00 in (1997)
Month to date snowfall 0.1  
Since 1 July snowfall 24.3  
Snow Depth -    
Sea Level Pressure  
Sea Level Pressure 29.71 in    
Wind  
Wind Speed 10 mph (WSW)    
Max Wind Speed 21 mph    
Max Gust Speed 28 mph    
Visibility 6 miles    
Events Rain    
T = Trace of Precipitation, MM = Missing Value Source: NWS Daily Summary

Daily Weather History Graph

Daily Weather History Graph

Search for Another Location

Airport or City:

Trip Planner

Search our weather history database for the weather conditions in past years. The results will help you decide how hot, cold, wet, or windy it might be!

Date:

Astronomy

Apr. 01, 2013 Rise Set
Actual Time 6:34 AM EDT 7:16 PM EDT
Civil Twilight 6:06 AM EDT 7:44 PM EDT
Nautical Twilight 5:34 AM EDT 8:17 PM EDT
Astronomical Twilight 5:00 AM EDT 8:50 PM EDT
Moon 12:23 AM EDT (4/1) 10:16 AM EDT (4/1)
Length of Visible Light 13h 37m
Length of Day
12h 41m
Waning Gibbous, 67% of the Moon is Illuminated
Apr 1
Waning Gibbous
Apr 3
Last Quarter
Apr 10
New
Apr 18
First Quarter
Apr 25
Full

Hourly Weather History & Observations

Time (EDT) Temp. Windchill Dew Point Humidity Pressure Visibility Wind Dir Wind Speed Gust Speed Precip Events Conditions
12:20 AM 46.4 °F 41.9 °F 46.4 °F 100% 29.65 in 1.2 mi WSW 9.2 mph - 0.01 in Rain Light Rain
12:56 AM 46.9 °F - 46.0 °F 97% 29.65 in 3.0 mi West 12.7 mph - 0.01 in   Overcast
2:16 AM 46.4 °F 42.9 °F 44.6 °F 93% 29.66 in 6.0 mi WSW 6.9 mph - N/A   Overcast
2:56 AM 46.9 °F - 45.0 °F 93% 29.68 in 8.0 mi West 13.8 mph 20.7 mph N/A   Overcast
3:03 AM 46.4 °F 41.9 °F 44.6 °F 93% 29.68 in 9.0 mi West 9.2 mph 20.7 mph N/A   Overcast
3:45 AM 46.4 °F 41.5 °F 42.8 °F 87% 29.68 in 10.0 mi West 10.4 mph - N/A   Scattered Clouds
4:41 AM 44.6 °F 42.2 °F 42.8 °F 93% 29.69 in 7.0 mi West 4.6 mph - N/A   Mostly Cloudy
4:56 AM 44.1 °F 40.1 °F 42.1 °F 93% 29.70 in 6.0 mi West 6.9 mph - N/A   Scattered Clouds
5:56 AM 44.1 °F 40.1 °F 42.1 °F 93% 29.71 in 4.0 mi WSW 6.9 mph - N/A   Clear
6:46 AM 44.6 °F 41.4 °F 41.0 °F 87% 29.72 in 2.5 mi West 5.8 mph - N/A   Clear
6:56 AM 44.1 °F 40.8 °F 42.1 °F 93% 29.71 in 2.5 mi West 5.8 mph - N/A   Clear
7:19 AM 44.6 °F 41.4 °F 42.8 °F 93% 29.71 in 3.0 mi WSW 5.8 mph - N/A   Clear
7:41 AM 44.6 °F 41.4 °F 42.8 °F 93% 29.71 in 2.5 mi WSW 5.8 mph - N/A   Clear
7:56 AM 46.0 °F 43.1 °F 44.1 °F 93% 29.71 in 3.0 mi SW 5.8 mph - N/A   Clear
8:56 AM 48.9 °F - 45.0 °F 86% 29.72 in 6.0 mi West 9.2 mph - N/A   Clear
9:56 AM 51.1 °F - 45.0 °F 80% 29.71 in 7.0 mi South 8.1 mph - N/A   Partly Cloudy
10:46 AM 48.2 °F - 44.6 °F 87% 29.72 in 4.0 mi South 13.8 mph - N/A   Haze
10:56 AM 48.9 °F - 45.0 °F 86% 29.72 in 4.0 mi South 13.8 mph - N/A   Mostly Cloudy
11:36 AM 48.2 °F - 42.8 °F 82% 29.70 in 4.0 mi South 11.5 mph - N/A   Haze
11:46 AM 48.2 °F - 42.8 °F 82% 29.70 in 6.0 mi SSW 12.7 mph - N/A   Haze
11:56 AM 48.0 °F - 43.0 °F 83% 29.71 in 6.0 mi South 12.7 mph - N/A   Haze
12:07 PM 48.2 °F - 42.8 °F 82% 29.71 in 6.0 mi South 12.7 mph - N/A   Haze
12:19 PM 50.0 °F - 42.8 °F 76% 29.70 in 7.0 mi SSW 11.5 mph - N/A   Scattered Clouds
1:09 PM 50.0 °F - 42.8 °F 76% 29.69 in 8.0 mi South 13.8 mph 24.2 mph N/A   Mostly Cloudy
1:24 PM 53.6 °F - 44.6 °F 72% 29.68 in 9.0 mi SSW 15.0 mph 20.7 mph N/A   Scattered Clouds
1:56 PM 54.0 °F - 44.1 °F 69% 29.67 in 10.0 mi SSW 12.7 mph 21.9 mph N/A   Clear
2:56 PM 54.0 °F - 43.0 °F 66% 29.65 in 10.0 mi SSW 20.7 mph 27.6 mph N/A   Scattered Clouds
4:50 PM 48.2 °F - 42.8 °F 82% 29.68 in 1.8 mi WNW 10.4 mph 23.0 mph 0.08 in Rain Heavy Rain
4:56 PM 48.9 °F - 43.0 °F 80% 29.68 in 1.5 mi WNW 11.5 mph - 0.10 in Rain Heavy Rain
5:03 PM 48.2 °F - 44.6 °F 87% 29.68 in 3.0 mi WNW 11.5 mph - 0.01 in Rain Light Rain
5:56 PM 46.0 °F 38.8 °F 37.0 °F 71% 29.72 in 10.0 mi NW 18.4 mph 25.3 mph 0.02 in   Overcast
6:56 PM 45.0 °F 40.1 °F 34.0 °F 65% 29.74 in 10.0 mi WNW 9.2 mph - 0.00 in   Overcast
7:56 PM 44.1 °F 40.8 °F 32.0 °F 63% 29.75 in 10.0 mi NW 5.8 mph - N/A   Mostly Cloudy
8:56 PM 42.1 °F 37.7 °F 32.0 °F 67% 29.80 in 10.0 mi NNW 6.9 mph - N/A   Clear
9:56 PM 41.0 °F 32.8 °F 32.0 °F 70% 29.84 in 10.0 mi NNW 16.1 mph 21.9 mph N/A   Scattered Clouds
10:56 PM 39.9 °F 32.9 °F 19.0 °F 43% 29.86 in 10.0 mi NW 11.5 mph 18.4 mph N/A   Clear
11:56 PM 37.9 °F 29.6 °F 15.1 °F 39% 29.88 in 10.0 mi NW 13.8 mph - N/A   Clear